{"data":{"norad_id":67264,"intl_designator":"2025-313S","name":"KOWSAR 1.5","alt_names":[],"object_type":"PAYLOAD","status":"ACTIVE","operator":null,"country":"IRAN","launch_date":"2025-12-28","launch_site_code":"VOSTO","launch_vehicle":null,"mission":null,"orbit_class":"UNKNOWN","rcs_meters":null,"size_class":null,"mass_kg":null,"dimensions":null,"purposes":[],"wikipedia_slug":null,"has_3d_model":false,"image_url":null,"decayed_at":null,"tle_current":{"epoch":"2026-09-20T04:46:31.033056Z","epoch_age_seconds":129048,"freshness":"FRESH","line1":"1 67264U 25313S   26263.19897029  .00003688  00000+0  15818-3 0  9993","line2":"2 67264  97.3944 336.4981 0015430  41.1607 319.0791 15.23255704 40401","mean_motion":15.23255704,"eccentricity":0.001543,"inclination_deg":97.3944,"raan_deg":336.4981,"arg_perigee_deg":41.1607,"mean_anomaly_deg":319.0791,"bstar":0.00015818,"rev_number":4040,"period_min":94.534357968831,"perigee_km":485.42137971881,"apogee_km":506.63505357739,"semimajor_km":6874.1652166481,"source":"CELESTRAK","updated_at":"2026-09-21T09:00:16.515336Z"}}}